Regional Weather Roundup
Issued by NWS Little Rock, AR

Home | Current Version | Previous Version | Text Only | Print | Product List | Glossary Off
Versions: 1 2 3 4 5 6 7 8 9 10 11 12 13 14 15 16 17 18 19 20 21 22 23 24 25 26 27 28 29 30 31 32 33 34 35 36 37 38 39 40 41 42 43 44 45 46 47 48 49 50

000
ASUS44 KLZK 030205
RWRLZK

WEATHER ROUNDUP FOR ARKANSAS
NATIONAL WEATHER SERVICE LITTLE ROCK AR
900 PM CDT THU JUL 02 2015

NOTE: "FAIR" INDICATES FEW OR NO CLOUDS BELOW 12,000 FEET WITH NO
SIGNIFICANT WEATHER AND/OR OBSTRUCTIONS TO VISIBILITY.

ARZ001-003-010-029-030300-
NORTHWEST ARKANSAS

CITY           SKY/WX    TMP DP  RH WIND       PRES   REMARKS
FAYETTEVILLE   LGT RAIN  69  67  93 CALM      29.95R
FORT SMITH     LGT RAIN  79  72  79 SW5       29.88R
HARRISON       CLOUDY    70  66  87 W6        29.91R
BENTONVILLE    MOCLDY    72  64  78 W5        29.94F
ROGERS         LGT RAIN  72  70  93 SW7       29.94S
SILOAM SPGS    CLOUDY    68  63  83 SW6         N/A
HIGHFILL       MOCLDY    70  68  93 SW5       29.94F
SPRINGDALE     LGT RAIN  73  70  88 NW14      29.97R
$$

ARZ004-005-016-030300-
NORTH CENTRAL ARKANSAS

CITY           SKY/WX    TMP DP  RH WIND       PRES   REMARKS
BATESVILLE     CLOUDY    81  68  65 W17G29    29.86R
FLIPPIN        MOCLDY    73  64  73 S5        29.86S
MTN HOME       LGT RAIN  71  66  84 S3        29.87F
$$

ARZ040-041-030300-
WEST CENTRAL ARKANSAS

CITY           SKY/WX    TMP DP  RH WIND       PRES   REMARKS
MENA           CLOUDY    82  72  69 SW6       29.93R HX  87
MOUNT IDA      CLOUDY    82  70  66 CALM      29.89R HX  86
$$

ARZ009-017-025-026-028-030300-
NORTHEAST ARKANSAS

CITY           SKY/WX    TMP DP  RH WIND       PRES   REMARKS
JONESBORO      LGT RAIN  80  71  74 N9        29.83R
NEWPORT        TSTM      77  69  76 SE9       29.83R
WALNUT RIDGE   CLOUDY   N/A N/A N/A NW35G41   29.81S THUNDER
BLYTHEVILLE    LGT RAIN  74  72  93 NW5       29.84R
$$

ARZ022-023-033-042-044-030300-
CENTRAL ARKANSAS

CITY           SKY/WX    TMP DP  RH WIND       PRES   REMARKS
LITTLE ROCK    CLOUDY    85  67  54 SW14G21   29.87S HX  87
N LITTLE ROCK  CLOUDY    83  72  69 SW6       29.87R HX  87
JACKSONVILLE   CLOUDY    85  69  58 SW13      29.86S HX  88
SEARCY         CLOUDY    83  70  64 SW7G18    29.86R HX  87
HOT SPRINGS    MOCLDY    81  70  69 W5        29.90R
RUSSELLVILLE   CLOUDY    81  72  74 CALM      29.87R HX  85
CLINTON        LGT RAIN  73  72  94 CALM      29.90R
$$

ARZ036-030300-
EAST ARKANSAS

CITY           SKY/WX    TMP DP  RH WIND       PRES   REMARKS
WEST MEMPHIS   PTCLDY    82  71  69 SW8       29.82F HX  86
$$

ARZ050-053-066-070-073-030300-
SOUTHWEST ARKANSAS

CITY           SKY/WX    TMP DP  RH WIND       PRES   REMARKS
ARKADELPHIA    FAIR      82  73  74 S5        29.90R HX  87
CAMDEN         MOCLDY    81  70  69 MISG      29.91R
TEXARKANA      PTCLDY    82  72  71 S5        29.92R HX  87
EL DORADO      MOCLDY    79  72  79 S3        29.93S
DE QUEEN       CLOUDY    82  72  71 SW5       29.89R HX  87
$$

ARZ056-057-069-030300-
SOUTHEAST ARKANSAS

CITY           SKY/WX    TMP DP  RH WIND       PRES   REMARKS
PINE BLUFF     CLOUDY    82  71  69 SW7       29.89S HX  86
STUTTGART      MOCLDY    81  72  74 MISG      29.86F
MONTICELLO     MOCLDY    83  73  72 SW7       29.91S HX  89

$$




USA.gov is the U.S. government's official web portal to all federal, state and local government web resources and services.